Location: *
(52.2090°N, 4.1550°W)
Time: 08:30:43
(UTC+00:00)

Cosmos 1862 - Pass Details

Date: 19 July 2019
Orbit: 538 x 558 km, 82.5° (Epoch: 18 August)

Event Time Altitude Azimuth Distance (km) Brightness Sun altitude
Exits shadow 22:28:15 20° 138° (SE) 1,305 4.6 -12.9°
Maximum altitude 22:30:15 31° 91° (E) 975 4.3 -13.0°
Drops below altitude 10° 22:33:49 10° 29° (NNE) 1,827 6.5 -13.2°
Sets 22:36:08 0° 19° (NNE) 2,722 7.6 -13.4°
